Location: Gälforsberget
(66.6500°N, 22.4167°E)
Time: 15:24:47
(UTC+00:00)

Cosmos 371 Rocket - Pass Details

Date: 11 April 2026
Orbit: 674 x 689 km, 74.0° (Epoch: 17 May)

Event Time Altitude Azimuth Distance (km) Brightness Sun altitude
Rises 22:53:56 0° 321° (NW) 3,064 7.3 -14.6°
Reaches altitude 10° 22:56:29 10° 310° (NW) 2,147 6.3 -14.6°
Maximum altitude 23:00:36 29° 252° (WSW) 1,271 4.4 -14.6°
Enters shadow 23:02:42 21° 212° (SSW) 1,549 4.6 -14.5°
